Location: Peebles
(55.6412°N, 3.1714°W)
Time: 12:34:09
(UTC+00:00)

RS-15 - Pass Details

Date: 02 December 2023
Orbit: 1893 x 2151 km, 64.8° (Epoch: 02 March)

Event Time Altitude Azimuth Distance (km) Brightness Sun altitude
Rises 23:07:12 0° 240° (WSW) 5,643 10.4 -54.9°
Enters shadow 23:07:14 - 240° (WSW) 5,632 10.4 -54.9°
Exits shadow 23:31:55 19° 51° (NE) 3,736 9.5 -55.9°
Drops below altitude 10° 23:34:23 10° 54° (NE) 4,433 10.0 -56.0°
Sets 23:37:41 0° 57° (ENE) 5,403 10.5 -56.1°
